time_stamp(utc),avg(mph),gust(mph),direction(deg),12m_air_temp(f),sonic_u(cm/s),sonic_v(cm/s),sonic_w(cm/s),pressure,2m_air_temp(f),pyranometer(W/m^2)
"2020-05-29 00:03:21+00",12.9,17.9,,63.7,44,-550,-13,1018.42,63.7,0
"2020-05-29 00:08:21+00",15.1,19.1,,63.3,63,-660,-6,1018.4,63.5,0
"2020-05-29 00:13:21+00",12.3,18.3,,63.3,83,-505,8,1018.42,63.4,0
"2020-05-29 00:18:21+00",16.9,19.9,,63.2,157,-701,-7,1018.27,63.2,0
"2020-05-29 00:23:21+00",16.8,20.8,,63.1,168,-709,-14,1018.21,63.2,0
"2020-05-29 00:28:21+00",11.9,14.9,,63.4,48,-515,-28,1018.3,63.4,0
"2020-05-29 00:33:21+00",16.0,19.0,,63.5,97,-694,-54,1018.18,63.5,0
"2020-05-29 00:38:21+00",15.9,20.9,,63.5,103,-673,-19,1018.21,63.5,0
"2020-05-29 00:43:21+00",16.8,18.8,,63.4,131,-718,-12,1018.05,63.4,0
"2020-05-29 00:48:21+00",19.9,23.9,,63.8,174,-820,-20,1018,63.7,0
"2020-05-29 00:53:21+00",18.8,23.8,,63.3,216,-791,-27,1018.01,63.3,0
"2020-05-29 00:58:21+00",17.4,22.4,,63.5,169,-717,-1,1018.08,63.5,0
"2020-05-29 01:03:21+00",17.8,22.8,,63.7,144,-775,-16,1018.21,63.7,0
"2020-05-29 01:08:21+00",16.5,20.5,,63.5,115,-690,-13,1018.24,63.5,0
"2020-05-29 01:13:21+00",16.2,21.2,,63.6,90,-665,-20,1018.3,63.6,0
"2020-05-29 01:18:21+00",17.2,21.2,,63.7,36,-722,-36,1018.44,63.6,0
"2020-05-29 01:23:21+00",16.1,20.1,,63.4,62,-658,-25,1018.46,63.4,0
"2020-05-29 01:28:21+00",16.0,21.0,,63.4,3,-664,-23,1018.7,63.4,0
"2020-05-29 01:33:21+00",14.9,18.9,,63.2,-15,-624,-21,1018.81,63.2,0
"2020-05-29 01:38:21+00",12.7,17.7,,63,-25,-524,-17,1018.77,63,0
"2020-05-29 01:43:21+00",12.5,16.5,,62.9,-8,-538,-6,1018.74,62.9,0
"2020-05-29 01:48:21+00",14.1,17.1,,62.9,-61,-593,-30,1018.59,62.8,0
"2020-05-29 01:53:21+00",10.1,15.1,,63,-5,-420,17,1018.65,62.9,0
"2020-05-29 01:58:21+00",12.7,17.7,,63.1,21,-533,-11,1018.65,63,0
"2020-05-29 02:03:21+00",12.6,18.6,,63,3,-557,-30,1018.59,63,0
"2020-05-29 02:08:21+00",12.8,17.8,,63,-4,-546,-4,1018.48,62.9,0
"2020-05-29 02:13:21+00",14.6,19.6,,63.1,-101,-599,4,1018.5,63,0
"2020-05-29 02:18:21+00",12.8,18.8,,63.2,-89,-530,4,1018.46,63.1,0
"2020-05-29 02:23:21+00",14.0,17.0,,63.2,-143,-594,10,1018.49,63.2,0
"2020-05-29 02:28:21+00",14.6,18.6,,62.9,-160,-633,-10,1018.39,62.9,0
"2020-05-29 02:33:21+00",11.1,15.1,,62.6,-45,-476,-12,1018.24,62.6,0
"2020-05-29 02:38:21+00",12.0,18.0,,62.4,-92,-522,5,1018.36,62.4,0
"2020-05-29 02:43:21+00",13.6,17.6,,62.3,-139,-575,5,1018.42,62.3,0
"2020-05-29 02:48:21+00",15.1,18.1,,62.3,-169,-629,-2,1018.42,62.3,0
"2020-05-29 02:53:21+00",13.8,16.8,,62.4,-175,-571,4,1018.43,62.4,0
"2020-05-29 02:58:21+00",15.0,20.0,,62.6,-164,-610,-14,1018.38,62.5,0
"2020-05-29 03:03:21+00",16.2,19.2,,62.7,-229,-652,-3,1018.46,62.6,0
"2020-05-29 03:08:21+00",16.4,20.4,,62.8,-236,-679,-20,1018.41,62.7,0
"2020-05-29 03:13:21+00",15.3,20.3,,62.9,-226,-649,0,1018.43,62.8,0
"2020-05-29 03:18:21+00",15.6,19.6,,62.8,-229,-620,27,1018.44,62.8,0
"2020-05-29 03:23:21+00",17.9,21.9,,62.7,-214,-752,-8,1018.34,62.7,0
"2020-05-29 03:28:21+00",12.8,18.8,,62.8,-120,-528,20,1018.3,62.7,0
"2020-05-29 03:33:21+00",17.2,21.2,,62.7,-216,-723,-2,1018.34,62.7,0
"2020-05-29 03:38:21+00",17.7,20.7,,62.8,-266,-712,-9,1018.34,62.7,0
"2020-05-29 03:43:21+00",17.4,21.4,,62.7,-246,-699,-10,1018.42,62.7,0
"2020-05-29 03:48:21+00",17.6,19.6,,62.7,-255,-710,-2,1018.41,62.6,0
"2020-05-29 03:53:21+00",15.6,18.6,,62.7,-225,-636,-4,1018.37,62.6,0
"2020-05-29 03:58:21+00",15.9,17.9,,62.8,-221,-648,8,1018.37,62.7,0
"2020-05-29 04:03:21+00",15.7,20.7,,62.8,-224,-630,-2,1018.36,62.7,0
"2020-05-29 04:08:21+00",19.7,23.7,,62.6,-331,-785,-2,1018.41,62.6,0
"2020-05-29 04:13:21+00",18.6,22.6,,62.6,-301,-729,-3,1018.49,62.6,0
"2020-05-29 04:18:21+00",16.4,19.4,,62.4,-252,-675,17,1018.41,62.3,0
"2020-05-29 04:23:21+00",20.2,23.2,,62.1,-325,-803,-5,1018.39,62.1,0
"2020-05-29 04:28:21+00",19.0,22.0,,62.1,-248,-778,-14,1018.23,62,0
"2020-05-29 04:33:21+00",17.9,21.9,,62,-246,-730,-13,1018.37,61.9,0
"2020-05-29 04:38:21+00",19.3,22.3,,61.9,-301,-767,12,1018.43,61.8,0
"2020-05-29 04:43:21+00",15.9,17.9,,62,-268,-648,3,1018.42,61.9,0
"2020-05-29 04:48:21+00",15.1,18.1,,62.1,-225,-601,12,1018.42,62,0
"2020-05-29 04:53:21+00",14.0,17.0,,62,-169,-568,2,1018.37,61.9,0
"2020-05-29 04:58:21+00",13.0,16.0,,62,-117,-524,13,1018.37,61.9,0
"2020-05-29 05:03:21+00",14.9,19.9,,62,-213,-637,-1,1018.45,61.9,0
"2020-05-29 05:08:21+00",18.6,20.6,,62.2,-353,-730,3,1018.47,62.1,0
"2020-05-29 05:13:21+00",17.7,20.7,,62.4,-307,-703,6,1018.47,62.2,0
"2020-05-29 05:18:21+00",16.4,19.4,,62.6,-338,-640,16,1018.59,62.3,0
"2020-05-29 05:23:21+00",15.1,18.1,,62.7,-288,-602,13,1018.57,62.4,0
"2020-05-29 05:28:21+00",14.9,17.9,,62.7,-293,-599,3,1018.51,62.4,0
"2020-05-29 05:33:21+00",13.8,16.8,,62.6,-223,-561,0,1018.36,62.4,0
"2020-05-29 05:38:21+00",14.2,16.2,,62.6,-194,-576,-11,1018.32,62.3,0
"2020-05-29 05:43:21+00",14.3,17.3,,62.6,-175,-592,-15,1018.31,62.3,0
"2020-05-29 05:48:21+00",12.0,17.0,,62.5,-131,-513,1,1018.32,62.3,0
"2020-05-29 05:53:21+00",13.7,16.7,,62.7,-208,-550,1,1018.33,62.4,0
"2020-05-29 05:58:21+00",15.3,17.3,,63,-285,-606,-5,1018.35,62.6,0
"2020-05-29 06:03:21+00",15.6,18.6,,63.3,-277,-612,-5,1018.3,62.9,0
"2020-05-29 06:08:21+00",13.8,18.8,,63.6,-265,-556,18,1018.38,63.2,0
"2020-05-29 06:13:21+00",15.7,17.7,,64.1,-281,-632,21,1018.34,63.6,0
"2020-05-29 06:18:21+00",15.0,18.0,,64,-158,-613,9,1018.33,63.7,0
"2020-05-29 06:23:21+00",16.2,18.2,,63.7,-242,-656,7,1018.36,63.6,0
"2020-05-29 06:28:21+00",17.0,19.0,,63.5,-280,-677,1,1018.41,63.4,0
"2020-05-29 06:33:21+00",14.5,16.5,,63.2,-250,-586,19,1018.48,63.2,0
"2020-05-29 06:38:21+00",15.5,18.5,,63,-236,-634,-8,1018.38,63,0
"2020-05-29 06:43:21+00",16.8,18.8,,62.9,-248,-678,-11,1018.35,62.9,0
"2020-05-29 06:48:21+00",17.2,19.2,,63.1,-275,-697,-10,1018.38,63,0
"2020-05-29 06:53:21+00",13.7,16.7,,63.2,-196,-559,14,1018.38,63.1,0
"2020-05-29 06:58:21+00",14.5,16.5,,63.4,-210,-591,-1,1018.26,63.2,0
"2020-05-29 07:03:21+00",14.4,16.4,,63.7,-226,-583,-1,1018.3,63.5,0
"2020-05-29 07:08:21+00",14.6,17.6,,64,-178,-588,4,1018.25,63.8,0
"2020-05-29 07:13:21+00",16.9,19.9,,64.2,-206,-700,-9,1018.15,63.9,0
"2020-05-29 07:18:21+00",16.5,18.5,,64.1,-213,-675,-7,1018.25,64,0
"2020-05-29 07:23:21+00",14.2,17.2,,64,-205,-600,-8,1018.11,63.9,0
"2020-05-29 07:28:21+00",13.2,17.2,,64,-199,-538,9,1018.19,63.8,0
"2020-05-29 07:33:21+00",13.0,16.0,,64,-158,-546,2,1018.2,63.8,0
"2020-05-29 07:38:21+00",13.8,18.8,,63.9,-156,-577,26,1018.12,63.8,0
"2020-05-29 07:43:21+00",12.2,17.2,,63.7,-115,-519,2,1018.06,63.6,0
"2020-05-29 07:48:21+00",12.6,15.6,,63.6,-181,-523,16,1017.95,63.5,0
"2020-05-29 07:53:21+00",16.4,20.4,,63.6,-254,-672,-1,1017.89,63.6,0
"2020-05-29 07:58:21+00",14.2,16.2,,63.4,-201,-581,3,1018,63.4,0
"2020-05-29 08:03:21+00",15.4,17.4,,63.5,-248,-626,-1,1017.99,63.3,0
"2020-05-29 08:08:21+00",15.7,18.7,,63.6,-266,-624,11,1018.05,63.5,0
"2020-05-29 08:13:21+00",14.5,18.5,,63.6,-185,-599,1,1017.99,63.5,0
"2020-05-29 08:18:21+00",15.4,19.4,,63.5,-238,-630,1,1017.95,63.4,0
"2020-05-29 08:23:21+00",16.7,19.7,,63.4,-203,-668,-14,1017.87,63.4,0
"2020-05-29 08:28:21+00",16.1,18.1,,63.2,-236,-639,5,1017.91,63.2,0
"2020-05-29 08:33:21+00",14.3,18.3,,63.1,-226,-559,10,1017.96,63.1,0
"2020-05-29 08:38:21+00",15.1,19.1,,63,-195,-615,-21,1017.96,63,0
"2020-05-29 08:43:21+00",14.1,16.1,,62.9,-232,-560,23,1018,62.9,0
"2020-05-29 08:48:21+00",15.8,17.8,,62.9,-258,-619,8,1018,62.9,0
"2020-05-29 08:53:21+00",15.3,17.3,,62.9,-279,-600,12,1017.97,62.9,0
"2020-05-29 08:58:21+00",14.3,18.3,,62.8,-255,-579,4,1017.96,62.8,0
"2020-05-29 09:03:21+00",14.2,16.2,,62.8,-272,-557,2,1018.06,62.8,0
"2020-05-29 09:08:21+00",14.6,16.6,,62.9,-274,-574,13,1018.1,62.8,0
"2020-05-29 09:13:21+00",17.3,20.3,,63.6,-446,-634,22,1018.14,63.3,0
"2020-05-29 09:18:21+00",18.4,20.4,,63.5,-449,-704,3,1018.16,63.4,0
"2020-05-29 09:23:21+00",16.8,18.8,,63.4,-383,-662,21,1018.14,63.4,0
"2020-05-29 09:28:21+00",14.0,16.0,,63.4,-317,-531,16,1018.16,63.3,0
"2020-05-29 09:33:21+00",17.7,19.7,,63.4,-426,-668,4,1018.22,63.3,0
"2020-05-29 09:38:21+00",15.6,18.6,,63.5,-423,-575,28,1018.22,63.4,0
"2020-05-29 09:43:21+00",14.6,16.6,,63.6,-338,-565,23,1018.27,63.5,0
"2020-05-29 09:48:21+00",15.6,18.6,,63.7,-426,-567,4,1018.33,63.6,0
"2020-05-29 09:53:21+00",13.3,17.3,,63.9,-324,-497,35,1018.28,63.7,0
"2020-05-29 09:58:21+00",13.5,14.5,,64,-283,-522,-4,1018.25,63.8,0
"2020-05-29 10:03:21+00",13.3,15.3,,64,-314,-507,26,1018.25,63.9,0
"2020-05-29 10:08:21+00",13.6,15.6,,64.3,-348,-498,20,1018.17,64,0
"2020-05-29 10:13:21+00",13.4,15.4,,64.7,-353,-513,33,1018.34,64.4,0
"2020-05-29 10:18:21+00",12.9,14.9,,64.8,-368,-462,27,1018.38,64.6,0
"2020-05-29 10:23:21+00",12.8,13.8,,64.5,-214,-500,1,1018.38,64.3,0
"2020-05-29 10:28:21+00",13.5,16.5,,64.1,-223,-530,7,1018.35,63.9,0
"2020-05-29 10:33:21+00",13.4,15.4,,64,-237,-538,8,1018.3,63.8,0
"2020-05-29 10:38:21+00",12.4,14.4,,63.9,-225,-490,4,1018.32,63.7,0
"2020-05-29 10:43:21+00",12.9,14.9,,63.8,-256,-509,-3,1018.32,63.7,0
"2020-05-29 10:48:21+00",11.9,13.9,,63.8,-260,-461,2,1018.28,63.6,0
"2020-05-29 10:53:21+00",11.2,13.2,,64,-261,-433,2,1018.18,63.9,0
"2020-05-29 10:58:21+00",10.8,12.8,,64.4,-172,-429,0,1018.19,64.3,0
"2020-05-29 11:03:21+00",10.2,12.2,,64.4,-187,-406,6,1018.1,64.4,0
"2020-05-29 11:08:21+00",10.5,12.5,,64.5,-150,-429,6,1018.15,64.4,0
"2020-05-29 11:13:21+00",11.9,13.9,,64.5,-167,-487,4,1018.15,64.5,0
"2020-05-29 11:18:21+00",11.0,13.0,,64.6,-137,-429,8,1018.09,64.6,0
"2020-05-29 11:23:21+00",13.7,15.7,,64.7,-195,-553,-5,1018.12,64.7,0
"2020-05-29 11:28:21+00",11.0,13.0,,64.9,-194,-428,-6,1018.16,65,0
"2020-05-29 11:33:21+00",12.1,14.1,,65,-253,-464,1,1018.18,65.1,0
"2020-05-29 11:38:21+00",12.0,14.0,,65.2,-190,-493,-9,1018.12,65.3,0
"2020-05-29 11:43:21+00",13.8,14.8,,65.4,-234,-548,-15,1018.26,65.6,0
"2020-05-29 11:48:21+00",11.4,14.4,,66,-163,-458,14,1018.17,66.3,0
"2020-05-29 11:53:21+00",13.7,16.7,,66,-190,-575,4,1018.15,66.6,0
"2020-05-29 11:58:21+00",10.7,14.7,,66.1,-102,-446,17,1018.19,66.7,0
"2020-05-29 12:03:21+00",14.8,16.8,,65.6,-238,-613,-6,1018.11,66.6,0
"2020-05-29 12:08:21+00",12.9,14.9,,65.8,-256,-507,5,1018.12,66.9,0
"2020-05-29 12:13:21+00",14.4,18.4,,66,-206,-574,15,1018.02,67,0
"2020-05-29 12:18:21+00",15.4,20.4,,66.1,-193,-657,5,1018.04,66.8,0
"2020-05-29 12:23:21+00",14.9,17.9,,65.8,-281,-595,-2,1018.06,66.7,0
"2020-05-29 12:28:21+00",13.2,18.2,,65.8,-162,-545,-6,1018.15,66.6,0
"2020-05-29 12:33:21+00",13.0,17.0,,65.7,-201,-528,13,1018.03,66.5,0
"2020-05-29 12:38:21+00",11.7,13.7,,65.7,-195,-480,4,1018.08,66.5,0
"2020-05-29 12:43:21+00",14.4,17.4,,65.8,-216,-593,-9,1018.03,66.6,0
"2020-05-29 12:48:21+00",10.9,14.9,,65.7,-89,-456,10,1018.02,66.6,0
"2020-05-29 12:53:21+00",12.6,15.6,,65.6,-103,-527,3,1017.84,66.5,0
"2020-05-29 12:58:21+00",10.6,13.6,,65.7,-76,-425,23,1017.96,66.6,0
"2020-05-29 13:03:21+00",14.1,18.1,,65.3,-120,-595,-11,1017.93,66.3,0
"2020-05-29 13:08:21+00",14.6,17.6,,64.9,-163,-623,6,1017.98,66.2,0
"2020-05-29 13:13:21+00",15.3,17.3,,64.5,-213,-628,-1,1017.89,65.8,0
"2020-05-29 13:18:21+00",15.8,17.8,,64.2,-219,-655,2,1017.86,65.6,0
"2020-05-29 13:23:21+00",13.7,17.7,,64.5,-140,-572,-10,1017.71,65.8,0
"2020-05-29 13:28:21+00",13.4,17.4,,64.3,-119,-544,23,1017.67,65.7,0
"2020-05-29 13:33:21+00",14.0,18.0,,64.4,-154,-589,0,1017.7,65.6,0
"2020-05-29 13:38:21+00",14.9,19.9,,64.7,-196,-605,-8,1017.6,65.8,0
"2020-05-29 13:43:21+00",13.1,16.1,,64.9,-157,-551,2,1017.56,66.1,0
"2020-05-29 13:48:21+00",14.9,17.9,,65.3,-159,-625,-16,1017.41,66.5,0
"2020-05-29 13:53:21+00",16.2,18.2,,65.4,-177,-673,-16,1017.44,66.9,0
"2020-05-29 13:58:21+00",17.6,19.6,,65.5,-268,-707,-25,1017.54,67,0
"2020-05-29 14:03:21+00",14.8,19.8,,66.2,-177,-651,-15,1017.58,67.5,0
"2020-05-29 14:08:21+00",15.5,19.5,,66.2,-162,-640,-1,1017.59,67.7,0
"2020-05-29 14:13:21+00",14.8,18.8,,66.6,-262,-600,27,1017.65,67.9,0
"2020-05-29 14:18:21+00",17.6,20.6,,66.7,-452,-671,-17,1017.64,68.1,0
"2020-05-29 14:23:21+00",17.7,20.7,,66.5,-394,-688,7,1017.61,68.3,0
"2020-05-29 14:28:21+00",19.2,21.2,,66.6,-339,-765,-18,1017.59,68.4,0
"2020-05-29 14:33:21+00",16.7,18.7,,67.5,-400,-641,4,1017.59,69,0
"2020-05-29 14:38:21+00",14.1,18.1,,68.7,-357,-559,67,1017.52,70,0
"2020-05-29 14:43:21+00",19.5,22.5,,68.6,-487,-757,7,1017.4,70.6,0
"2020-05-29 14:48:21+00",19.1,21.1,,67.8,-565,-642,10,1017.42,70.2,0
"2020-05-29 14:53:21+00",18.3,20.3,,67.7,-466,-697,-8,1017.47,70.1,0
"2020-05-29 14:58:21+00",17.2,19.2,,67.5,-512,-572,34,1017.37,70.1,0
"2020-05-29 15:03:21+00",14.2,15.2,,67.9,-354,-558,8,1017.27,70.1,0
"2020-05-29 15:08:21+00",16.6,19.6,,68.2,-387,-658,17,1017.18,70.2,0
"2020-05-29 15:13:21+00",15.4,19.4,,68.2,-333,-630,18,1017.09,70.2,0
"2020-05-29 15:18:21+00",16.7,19.7,,68.7,-399,-643,15,1017.05,70.8,0
"2020-05-29 15:23:21+00",12.2,15.2,,69.4,-236,-482,-7,1017.1,71.5,0
"2020-05-29 15:28:21+00",13.5,16.5,,70,-154,-572,-3,1017.02,72.2,0
"2020-05-29 15:33:21+00",12.4,15.4,,69.9,-49,-526,-9,1016.98,72.2,0
"2020-05-29 15:38:21+00",14.6,17.6,,69,-84,-631,-29,1016.96,71.1,0
"2020-05-29 15:43:21+00",13.9,16.9,,69,-72,-604,-19,1016.87,71.1,0
"2020-05-29 15:48:21+00",12.7,16.7,,68.8,-124,-529,9,1016.97,70.8,0
"2020-05-29 15:53:21+00",14.0,19.0,,68.3,-103,-593,0,1016.91,70.5,0
"2020-05-29 15:58:21+00",16.4,18.4,,67.4,-78,-714,-25,1016.93,69.7,0
"2020-05-29 16:03:21+00",11.3,18.3,,67.5,-100,-451,25,1016.83,69.9,0
"2020-05-29 16:08:21+00",15.7,17.7,,67.5,-234,-651,1,1016.78,70,0
"2020-05-29 16:13:21+00",14.0,18.0,,67.7,-147,-568,8,1016.78,69.9,0
"2020-05-29 16:18:21+00",13.1,18.1,,67.8,-142,-573,1,1016.74,70,0
"2020-05-29 16:23:21+00",15.4,17.4,,67.2,-175,-649,-10,1016.71,69.7,0
"2020-05-29 16:28:21+00",16.3,20.3,,67.5,-219,-667,-23,1016.47,69.7,0
"2020-05-29 16:33:21+00",14.9,17.9,,68.4,-143,-631,-7,1016.48,70.4,0
"2020-05-29 16:38:21+00",12.2,17.2,,69.2,-128,-517,28,1016.4,71,0
"2020-05-29 16:43:21+00",18.2,22.2,,68.7,-138,-766,-14,1016.4,70.6,0
"2020-05-29 16:48:21+00",19.3,24.3,,67.1,-94,-814,-20,1016.41,69.5,0
"2020-05-29 16:53:21+00",17.5,21.5,,66.3,-167,-730,5,1016.45,68.4,0
"2020-05-29 16:58:21+00",16.1,20.1,,66.2,-257,-646,3,1016.19,68.3,0
"2020-05-29 17:03:21+00",18.1,22.1,,66.6,-239,-763,-3,1016.3,68.5,0
"2020-05-29 17:08:21+00",16.6,23.6,,67,-207,-657,32,1016.1,68.8,0
"2020-05-29 17:13:21+00",20.1,24.1,,66.8,-248,-839,-20,1016.15,68.9,0
"2020-05-29 17:18:21+00",16.4,22.4,,67.3,-178,-672,4,1016.22,69.1,0
"2020-05-29 17:23:21+00",18.7,22.7,,68.1,-453,-751,60,1016.19,69.9,0
"2020-05-29 17:28:21+00",18.3,22.3,,68,-379,-751,-10,1015.97,70.2,0
"2020-05-29 17:33:21+00",17.8,20.8,,68.6,-327,-729,4,1015.88,70.5,0
"2020-05-29 17:38:21+00",17.0,20.0,,69,-261,-681,-13,1015.74,71,0
"2020-05-29 17:43:21+00",17.7,20.7,,69.8,-330,-727,-1,1015.78,71.6,0
"2020-05-29 17:48:21+00",16.3,20.3,,69.9,-348,-649,24,1015.78,71.7,0
"2020-05-29 17:53:21+00",22.0,26.0,,69.6,-575,-860,20,1015.87,71.5,0
"2020-05-29 17:58:21+00",18.9,20.9,,69.7,-455,-732,-2,1015.69,71.4,0
"2020-05-29 18:03:21+00",18.1,24.1,,69.4,-343,-712,-35,1015.6,71.1,0
"2020-05-29 18:08:21+00",16.8,19.8,,69.5,-253,-690,12,1015.55,71.3,0
"2020-05-29 18:13:21+00",21.5,24.5,,69.3,-342,-871,-22,1015.46,71.2,0
"2020-05-29 18:18:21+00",19.3,22.3,,69.7,-273,-807,2,1015.47,71.5,0
"2020-05-29 18:23:21+00",17.9,20.9,,69.2,-336,-735,23,1015.36,71.3,0
"2020-05-29 18:28:21+00",20.1,23.1,,68.8,-353,-812,-5,1015.23,71,0
"2020-05-29 18:33:21+00",21.2,24.2,,68.6,-350,-864,-34,1015.2,70.6,0
"2020-05-29 18:38:21+00",20.3,23.3,,68.6,-385,-818,-20,1015.18,70.4,0
"2020-05-29 18:43:21+00",16.6,18.6,,68.3,-292,-670,-4,1015.24,70.2,0
"2020-05-29 18:48:21+00",17.9,20.9,,68.1,-271,-729,-5,1015.16,69.7,0
"2020-05-29 18:53:21+00",19.6,23.6,,68.2,-315,-817,-5,1015.01,70.1,0
"2020-05-29 18:58:21+00",17.5,21.5,,68.2,-224,-739,17,1014.96,70.2,0
"2020-05-29 19:03:21+00",23.3,26.3,,67.7,-418,-935,-10,1014.93,69.9,0
"2020-05-29 19:08:21+00",18.4,23.4,,67.7,-397,-751,8,1014.93,69.7,0
"2020-05-29 19:13:21+00",19.3,22.3,,68.3,-410,-771,13,1015.01,69.9,0
"2020-05-29 19:18:21+00",22.4,25.4,,68,-482,-911,5,1014.88,69.4,0
"2020-05-29 19:23:21+00",23.1,26.1,,68.2,-387,-933,-9,1014.82,69.7,0
"2020-05-29 19:28:21+00",24.7,28.7,,68.4,-405,-1006,-27,1014.75,70.2,0
"2020-05-29 19:33:21+00",21.9,26.9,,68.8,-366,-901,11,1014.52,70.4,0
"2020-05-29 19:38:21+00",21.4,27.4,,69.3,-301,-893,17,1014.44,70.9,0
"2020-05-29 19:43:21+00",26.8,30.8,,69.1,-529,-1076,-18,1014.44,70.8,0
"2020-05-29 19:48:21+00",26.3,31.3,,68.8,-487,-1051,4,1014.45,70.4,0
"2020-05-29 19:53:21+00",24.0,30.0,,69.1,-417,-976,0,1014.27,70.4,0
"2020-05-29 19:58:21+00",23.0,26.0,,69.5,-443,-945,-8,1014.2,70.4,0
"2020-05-29 20:03:21+00",20.3,25.3,,69.8,-443,-827,11,1014.23,70.8,0
"2020-05-29 20:08:21+00",22.2,27.2,,69.9,-460,-901,38,1014.1,71.1,0
"2020-05-29 20:13:21+00",23.3,26.3,,69.7,-468,-955,-8,1014.18,71,0
"2020-05-29 20:18:21+00",22.3,28.3,,69.7,-372,-920,6,1014.03,71.2,0
"2020-05-29 20:23:21+00",24.4,27.4,,69.6,-432,-988,-12,1014.01,71.1,0
"2020-05-29 20:28:21+00",22.7,26.7,,69.5,-368,-927,-9,1013.83,71.3,0
"2020-05-29 20:33:21+00",24.5,29.5,,69.9,-396,-1009,-18,1013.78,71.5,0
"2020-05-29 20:38:21+00",21.9,25.9,,70.2,-427,-879,5,1013.84,71.8,0
"2020-05-29 20:43:21+00",22.3,28.3,,70,-367,-906,16,1013.76,71.8,0
"2020-05-29 20:48:21+00",20.7,27.7,,69.9,-335,-881,18,1013.72,71.8,0
"2020-05-29 20:53:21+00",20.9,24.9,,69.8,-289,-862,5,1013.7,71.7,0
"2020-05-29 20:58:21+00",24.4,28.4,,69.7,-430,-1013,-14,1013.7,71.4,0
"2020-05-29 21:03:21+00",18.2,23.2,,70,-348,-726,24,1013.56,71.5,0
"2020-05-29 21:08:21+00",21.8,26.8,,69.8,-374,-901,-7,1013.68,70.9,0
"2020-05-29 21:13:21+00",21.9,26.9,,69.3,-385,-895,6,1013.51,70.4,0
"2020-05-29 21:18:21+00",18.5,23.5,,69,-365,-739,3,1013.46,69.9,0
"2020-05-29 21:23:21+00",18.5,21.5,,68.8,-301,-765,2,1013.58,69.8,0
"2020-05-29 21:28:21+00",18.3,21.3,,68.8,-276,-763,-5,1013.6,69.7,0
"2020-05-29 21:33:21+00",21.8,25.8,,68.7,-393,-897,-16,1013.59,69.6,0
"2020-05-29 21:38:21+00",18.6,24.6,,68.7,-324,-761,10,1013.51,69.5,0
"2020-05-29 21:43:21+00",21.4,25.4,,68.1,-392,-863,2,1013.62,69.1,0
"2020-05-29 21:48:21+00",20.4,23.4,,67.8,-377,-835,-6,1013.6,68.7,0
"2020-05-29 21:53:21+00",18.0,23.0,,67.8,-257,-720,25,1013.56,68.5,0
"2020-05-29 21:58:21+00",16.8,19.8,,67.6,-217,-694,-13,1013.57,68.3,0
"2020-05-29 22:03:21+00",21.3,25.3,,67.6,-314,-897,-13,1013.54,68.2,0
"2020-05-29 22:08:21+00",19.0,23.0,,67.3,-291,-797,-23,1013.6,67.8,0
"2020-05-29 22:13:21+00",17.1,20.1,,66.1,-104,-730,-10,1013.57,66.9,0
"2020-05-29 22:18:21+00",16.8,21.8,,65.3,-154,-710,7,1013.66,66.1,0
"2020-05-29 22:23:21+00",17.2,21.2,,65.2,-246,-700,11,1013.68,65.8,0
"2020-05-29 22:28:21+00",18.1,23.1,,65.2,-214,-741,-6,1013.65,65.7,0
"2020-05-29 22:33:21+00",16.1,21.1,,65.2,-156,-702,-2,1013.44,65.6,0
"2020-05-29 22:38:21+00",12.1,16.1,,64.9,-108,-496,26,1013.36,65.4,0
"2020-05-29 22:43:21+00",15.0,20.0,,64.7,-156,-664,17,1013.31,65.1,0
"2020-05-29 22:48:21+00",15.7,20.7,,64.5,-119,-674,3,1013.24,64.9,0
"2020-05-29 22:53:21+00",14.3,18.3,,64.3,-120,-620,19,1013.33,64.6,0
"2020-05-29 22:58:21+00",16.9,20.9,,64.4,-224,-714,8,1013.56,64.7,0
"2020-05-29 23:03:21+00",17.5,22.5,,64.4,-204,-718,-5,1013.58,64.7,0
"2020-05-29 23:08:21+00",15.6,21.6,,64.7,-171,-667,12,1013.39,64.8,0
"2020-05-29 23:13:21+00",15.8,22.8,,64.3,-125,-678,14,1013.34,64.5,0
"2020-05-29 23:18:21+00",15.5,19.5,,63.8,-116,-649,-3,1013.34,64.1,0
"2020-05-29 23:23:21+00",14.0,19.0,,63.6,-143,-601,12,1013.26,63.9,0
"2020-05-29 23:28:21+00",14.1,18.1,,63.8,-125,-607,5,1013.27,64,0
"2020-05-29 23:33:21+00",17.6,22.6,,63.7,-218,-747,3,1013.28,63.9,0
"2020-05-29 23:38:21+00",14.8,18.8,,63.6,-160,-633,11,1013.28,63.8,0
"2020-05-29 23:43:21+00",17.9,21.9,,63.6,-150,-773,-26,1013.25,63.8,0
"2020-05-29 23:48:21+00",15.6,19.6,,63.6,-174,-646,9,1013.27,63.8,0
"2020-05-29 23:53:21+00",17.2,22.2,,63.8,-293,-698,-6,1013.45,63.9,0
"2020-05-29 23:58:21+00",15.4,19.4,,64.1,-236,-629,2,1013.45,64.2,0
